Championnats Départementaux Open Hiver

Départementale

GUEBWILLER

Le Dimanche 24 Novembre 2013

Bassin de 25m

50 Papillon Messieurs

Séries

Nom Année Club Pays Temps Points Niv.
1 LE BRAS Florian 1994 MULHOUSE ON FRA 0:28:43 1069
2 NAIGRE Jasmin 1994 MULHOUSE ON FRA 0:29:09 1031
3 HALLER Emilien 1996 SR COLMAR FRA 0:29:73 995
4 KLINGER Emeric 1999 DAUPHINS DE ST-LOUIS FRA 0:30:10 974
5 FUCHS Tristan 1998 THANN OLYMPIC N FRA 0:30:48 953
6 GREDER Valentin 1995 SR CERNAY FRA 0:30:61 946
7 MULLER Nicolas 1996 SR COLMAR FRA 0:30:62 945
8 CORNEC Clement 1997 C.N DU FLORIVAL FRA 0:30:70 941
9 RIBER Victor 2000 C.N DU FLORIVAL FRA 0:31:28 909
10 ZIMMERMANN Hervé 1999 C.N DU FLORIVAL FRA 0:32:16 862
11 BECK Vincent 1997 MULHOUSE ON FRA 0:32:26 857
12 FOURNIER Alexandre 1997 C.N DU FLORIVAL FRA 0:32:36 852
13 PETARD Nathan 1999 C.N DU FLORIVAL FRA 0:32:53 843
14 ROCHEMONT Ludovic 1999 MULHOUSE ON FRA 0:32:98 820
15 BESSERER Thibaud 1998 C.N DU FLORIVAL FRA 0:33:27 805
16 BRAVO Luca 1998 A.N.S D'ILLFURTH FRA 0:33:28 804
17 WEST Emmanuel 1997 C.N DU FLORIVAL FRA 0:33:56 790
18 GUILLOT Benoît 2000 SR COLMAR FRA 0:33:58 789
19 PETITJEAN Victor 1999 MULHOUSE ON FRA 0:33:61 788
20 REICHEL Alexandre 2002 MULHOUSE ON FRA 0:34:32 753
21 GREDER Maxime 1999 SR CERNAY FRA 0:35:21 710
22 DEWULF Florian 1997 CLUB NAUTIQUE DE LA DOLLER FRA 0:35:50 696
23 WESTRICH Victor 2000 MULHOUSE ON FRA 0:36:09 668
24 SAVARY Adrien 2000 CN ILE DU RHIN FRA 0:36:86 633
25 ALLENBACH Lucas 2000 CNHT WESSERLING FRA 0:37:39 610
26 PREVOT Noah 2001 KAYSERSBERG NATATION FRA 0:37:54 603
27 BOURRE Maxime 1998 CNHT WESSERLING FRA 0:38:81 548
28 HUBERT Louis 2002 DAUPHINS DE ST-LOUIS FRA 0:39:00 541
29 BLONDE Louis 1997 C.N DU FLORIVAL FRA 0:39:57 517
30 TURPIN Matheo 2001 SR CERNAY FRA 0:39:94 502
31 ARNOLD Paul 2000 C.N DU FLORIVAL FRA 0:40:11 495
32 KLEITZ Guillaume 2002 MULHOUSE ON FRA 0:41:19 453
33 LAMOLINAIRIE Théo 2001 CN ILE DU RHIN FRA 0:42:27 413
34 CENTLIVRE Paulin 2002 C.N DU FLORIVAL FRA 0:44:37 340
35 HELM Lucas 2001 CN ILE DU RHIN FRA 0:45:28 311
36 LUMIA Hugo 2001 CNHT WESSERLING FRA 0:45:57 302
37 THIEBAUT Nicolas 2001 C.N DU FLORIVAL FRA 0:45:98 289
38 DITNER Matthieu 2001 SR CERNAY FRA 0:48:49 218
39 MANYIM Franck 2001 CNHT WESSERLING FRA 0:49:91 182
40 KOCH Leo 2002 CLUB NAUTIQUE DE LA DOLLER FRA 0:57:40 46
41 ECE Doga 2002 DAUPHINS DE ST-LOUIS FRA 0:57:79 42
42 BRAND Alban 2000 CNHT WESSERLING FRA - Disq.
43 LITZLER Nathan 1997 C.N DU FLORIVAL FRA - Disq.
44 NEY Paul 2002 C.N DU FLORIVAL FRA - Disq.
45 CARRETTE Julien 2002 DAUPHINS DE ST-LOUIS FRA - Disq.